Change the Weather History Date:

Friday, January 17, 2014

  Actual Average Record
Temperature  
Mean Temperature 47 °F -  
Max Temperature 55 °F 60 °F 67 °F (2013)
Min Temperature 39 °F 44 °F 39 °F (2014)
Degree Days  
Heating Degree Days 18    
Moisture  
Dew Point 45 °F    
Average Humidity 86    
Maximum Humidity 100    
Minimum Humidity 59    
Precipitation  
Precipitation 0.39 in 0.10 in - ()
Sea Level Pressure  
Sea Level Pressure 29.74 in    
Wind  
Wind Speed 6 mph ()    
Max Wind Speed 15 mph    
Max Gust Speed 17 mph    
Visibility 6.7 miles    
Events Rain    
Averages and records for this station are not official NWS values.
T = Trace of Precipitation, MM = Missing Value Source: Averaged Metar Reports

Daily Weather History Graph

Daily Weather History Graph

Search for Another Location

Airport or City:

Trip Planner

Search our weather history database for the weather conditions in past years. The results will help you decide how hot, cold, wet, or windy it might be!

Date:

Astronomy

Jan. 17, 2014 Rise Set
Actual Time 8:28 AM CET 6:27 PM CET
Civil Twilight 8:00 AM CET 6:55 PM CET
Nautical Twilight 7:29 AM CET 7:27 PM CET
Astronomical Twilight 6:58 AM CET 7:58 PM CET
Moon 7:57 PM CET (1/17) 8:52 AM CET (1/17)
Length of Visible Light 10h 54m
Length of Day
9h 58m
Full, 99% of the Moon is Illuminated
Jan 17
Full
Jan 24
Last Quarter
Jan 30
New
Feb 6
First Quarter
Feb 15
Full

Hourly Weather History & Observations

Time (CET) Temp. Windchill Dew Point Humidity Pressure Visibility Wind Dir Wind Speed Gust Speed Precip Events Conditions
12:00 AM 51 °F - 41 °F 59% 29.92 in - West 11.5 mph - -  
12:00 AM 50.0 °F - 41.0 °F 71% 29.92 in 6.2 mi West 10.4 mph - N/A   Partly Cloudy
12:30 AM 50.0 °F - 41.0 °F 71% 29.89 in 6.2 mi WNW 11.5 mph - N/A   Partly Cloudy
1:00 AM 48 °F - 41 °F 70% 29.91 in 12 mi WNW 8.1 mph - -   Scattered Clouds
1:00 AM 48.2 °F - 41.0 °F 76% 29.89 in 6.2 mi WNW 8.1 mph - N/A   Partly Cloudy
1:30 AM 48.2 °F - 41.0 °F 76% 29.89 in 6.2 mi West 6.9 mph - N/A   Partly Cloudy
2:00 AM 48 °F - 41 °F 70% 29.89 in - West 8.1 mph - -  
2:00 AM 50.0 °F - 42.8 °F 76% 29.86 in 6.2 mi West 8.1 mph - N/A   Partly Cloudy
2:30 AM 46.4 °F 44.3 °F 39.2 °F 76% 29.86 in 6.2 mi West 4.6 mph - N/A   Partly Cloudy
3:00 AM 46 °F - 41 °F 75% 29.88 in - WNW 6.9 mph - -  
3:00 AM 42.8 °F 39.3 °F 39.2 °F 87% 29.86 in 6.2 mi NW 5.8 mph - N/A   Partly Cloudy
3:30 AM 42.8 °F 41.1 °F 39.2 °F 87% 29.86 in 6.2 mi NW 3.5 mph - N/A   Partly Cloudy
4:00 AM 43 °F - 40 °F 84% 29.87 in 12 mi West 4.6 mph - -   Scattered Clouds
4:00 AM 42.8 °F 40.1 °F 39.2 °F 87% 29.86 in 6.2 mi WNW 4.6 mph - N/A   Partly Cloudy
4:30 AM 41.0 °F 38.0 °F 39.2 °F 93% 29.83 in 6.2 mi WNW 4.6 mph - N/A   Partly Cloudy
5:00 AM 42 °F - 39 °F 86% 29.86 in - NW 3.5 mph - -  
5:00 AM 41.0 °F 39.0 °F 39.2 °F 93% 29.83 in 6.2 mi NW 3.5 mph - N/A   Partly Cloudy
5:30 AM 41.0 °F 37.1 °F 37.4 °F 87% 29.83 in 6.2 mi WNW 5.8 mph - N/A   Scattered Clouds
6:00 AM 42 °F - 39 °F 85% 29.84 in - West 6.9 mph - -  
6:00 AM 41.0 °F 36.4 °F 39.2 °F 93% 29.83 in 6.2 mi West 6.9 mph - N/A   Scattered Clouds
6:30 AM 41.0 °F 36.4 °F 39.2 °F 93% 29.83 in 6.2 mi WNW 6.9 mph - N/A   Scattered Clouds
7:00 AM 42 °F - 39 °F 86% 29.83 in 12 mi WNW 4.6 mph - -   Scattered Clouds
7:00 AM 39.2 °F 37.0 °F 37.4 °F 93% 29.80 in 6.2 mi NW 3.5 mph - N/A   Scattered Clouds
7:30 AM 41.0 °F 36.4 °F 39.2 °F 93% 29.80 in 6.2 mi WNW 6.9 mph - N/A   Partly Cloudy
8:00 AM 43 °F - 40 °F 85% 29.82 in - West 6.9 mph - -  
8:00 AM 41.0 °F 37.1 °F 39.2 °F 93% 29.80 in 6.2 mi West 5.8 mph - N/A   Scattered Clouds
8:30 AM 44.6 °F 41.4 °F 41.0 °F 87% 29.80 in 6.2 mi WNW 5.8 mph - N/A   Mostly Cloudy
9:00 AM 45 °F - 40 °F 78% 29.82 in - NW 3.5 mph - -  
9:00 AM 42.8 °F 41.1 °F 41.0 °F 93% 29.80 in 6.2 mi NW 3.5 mph - N/A   Mostly Cloudy
9:30 AM 42.8 °F 41.1 °F 41.0 °F 93% 29.80 in 6.2 mi NW 3.5 mph - N/A Rain Rain
10:00 AM 46 °F - 42 °F 82% 29.81 in 12 mi West 1.2 mph - - Rain Light Rain
10:00 AM 44.6 °F - 42.8 °F 93% 29.80 in 6.2 mi Variable 1.2 mph - N/A   Mostly Cloudy
10:30 AM 46.4 °F - 42.8 °F 87% 29.80 in 6.2 mi WNW 1.2 mph - N/A   Mostly Cloudy
11:00 AM 49 °F - 44 °F 78% 29.81 in - SSE 1.2 mph - -  
11:00 AM 48.2 °F - 44.6 °F 87% 29.80 in 6.2 mi Variable 1.2 mph - N/A   Mostly Cloudy
11:30 AM 50.0 °F - 46.4 °F 87% 29.77 in 6.2 mi Calm Calm - N/A Rain Light Rain
12:00 PM 53 °F - 49 °F 82% 29.78 in - East 4.6 mph - -   Unknown Precipitation
12:00 PM 51.8 °F - 48.2 °F 88% 29.77 in 6.2 mi East 3.5 mph - N/A Rain Light Rain
12:30 PM 51.8 °F - 50.0 °F 94% 29.74 in 6.2 mi ESE 9.2 mph - N/A   Mostly Cloudy
1:00 PM 54 °F - 49 °F 79% 29.74 in 7 mi ESE 10.4 mph - - Rain Light Rain
1:00 PM 53.6 °F - 50.0 °F 88% 29.71 in 6.2 mi ESE 9.2 mph - N/A   Mostly Cloudy
1:30 PM 53.6 °F - 50.0 °F 88% 29.71 in 6.2 mi ESE 8.1 mph - N/A   Mostly Cloudy
2:00 PM 54 °F - 49 °F 79% 29.69 in - East 10.4 mph - -   Unknown Precipitation
2:00 PM 51.8 °F - 50.0 °F 94% 29.68 in 4.3 mi East 10.4 mph - N/A Rain Rain
2:30 PM 51.8 °F - 50.0 °F 94% 29.68 in 4.3 mi SE 6.9 mph - N/A Rain Rain
3:00 PM 53 °F - 50 °F 86% 29.67 in - NNW 5.8 mph - -   Unknown Precipitation
3:00 PM 51.8 °F - 50.0 °F 94% 29.65 in 4.3 mi ENE 5.8 mph 17.3 mph N/A Rain Rain Showers
3:30 PM 53.6 °F - 51.8 °F 94% 29.65 in 6.2 mi ESE 4.6 mph 17.3 mph N/A   Mostly Cloudy
4:00 PM 54 °F - 50 °F 82% 29.63 in 9 mi East 15.0 mph - - Rain Light Rain Showers
4:00 PM 53.6 °F - 50.0 °F 88% 29.62 in 6.2 mi East 15.0 mph - N/A   Mostly Cloudy
4:30 PM 53.6 °F - 51.8 °F 94% 29.62 in 6.2 mi SE 11.5 mph - N/A   Mostly Cloudy
5:00 PM 56 °F - 49 °F 71% 29.63 in - SE 11.5 mph - -  
5:00 PM 55.4 °F - 50.0 °F 82% 29.62 in 6.2 mi SE 10.4 mph - N/A   Mostly Cloudy
5:08 PM 55.4 °F - 50.0 °F 82% 29.62 in 4.3 mi SSE 10.4 mph - N/A Rain Rain Showers
5:30 PM 51.8 °F - 48.2 °F 88% 29.62 in 6.2 mi SSE 3.5 mph - N/A   Mostly Cloudy
6:00 PM 53 °F - 50 °F 84% 29.63 in - East 8.1 mph - -   Unknown Precipitation
6:00 PM 51.8 °F - 50.0 °F 94% 29.62 in 6.2 mi East 6.9 mph - N/A   Mostly Cloudy
6:30 PM 51.8 °F - 50.0 °F 94% 29.59 in 6.2 mi Variable 2.3 mph - N/A   Mostly Cloudy
7:00 PM 52 °F - 49 °F 88% 29.62 in 12 mi ESE 2.3 mph - -   Partly Cloudy
7:00 PM 51.8 °F - 50.0 °F 94% 29.59 in 6.2 mi Variable 1.2 mph - N/A   Mostly Cloudy
7:30 PM 51.8 °F - 50.0 °F 94% 29.59 in 6.2 mi East 2.3 mph - N/A   Mostly Cloudy
8:00 PM 52 °F - 48 °F 83% 29.62 in - SE 5.8 mph - -  
8:00 PM 50.0 °F - 48.2 °F 94% 29.59 in 6.2 mi ESE 5.8 mph - N/A   Mostly Cloudy
8:30 PM 51.8 °F - 48.2 °F 88% 29.59 in 6.2 mi South 3.5 mph - N/A Rain Light Rain
9:00 PM 52 °F - 48 °F 82% 29.61 in - SE 2.3 mph - -   Unknown Precipitation
9:00 PM 51.8 °F - 48.2 °F 88% 29.59 in 6.2 mi Variable 1.2 mph - N/A   Mostly Cloudy
9:30 PM 51.8 °F - 48.2 °F 88% 29.59 in 6.2 mi Variable 2.3 mph - N/A Rain Light Rain
10:00 PM 52 °F - 49 °F 87% 29.60 in 9 mi East 2.3 mph - - Rain Light Rain
10:00 PM 51.8 °F - 48.2 °F 88% 29.59 in 6.2 mi Calm Calm - N/A   Mostly Cloudy
10:30 PM 50.0 °F - 50.0 °F 100% 29.56 in 6.2 mi Calm Calm - N/A Rain Light Rain
11:00 PM 51 °F - 49 °F 88% 29.58 in - SE 1.2 mph - -   Unknown Precipitation
11:00 PM 50.0 °F - 48.2 °F 94% 29.56 in 6.2 mi SE 1.2 mph - N/A   Mostly Cloudy
11:30 PM 50.0 °F - 48.2 °F 94% 29.56 in 6.2 mi Calm Calm - N/A   Mostly Cloudy